www.pogodaiklimat.ru

Погода и климат >> Архив погоды >> Иран >> Tehran


АРХИВ ПОГОДЫ в Tehran

Время (UTC), дата Ветер
(напр.,м/с)
 
Видим.   Явления Облачность Т
(С)
Тd
(С)
f
(%)
Тe
(С)
Тes
(С)
Комфортность P
(гПа)
Po
(гПа)
Тmin
(С)
Tmax
(С)
R
(мм)
R24
(мм)
S
(см)
00 7.12 штиль 0 10 км {дождь} 8/3 1050 м
[Sc Ac As Ci fib]
+8.1 +4.7 79 +7 +7 тепло 1008.5 875.9 8
03 7.12 штиль 0 10 км 8/3 1050 м
[Sc Ac As Ci fib]
+7.0 +4.0 81 +6 +6 по сезону 1009.8 876.4 +6.8
06 7.12 ЮЗ 2 8000 м мгла {дождь} 5/3 1050 м
[Cu hum Ac trans Ci fib]
+9.0 +4.4 73 +7 +9 по сезону 1010.9 877.7 0.0
09 7.12 З 8 10 км 8/5 900 м
[Cb calv Ac As]
+12.1 +1.4 48 +9 +10 по сезону 1009.6 876.6
12 7.12 З 7 14 км 6/6 1050 м
[Cu med, cong Ac trans]
+12.0 -0.5 42 +9 +10 по сезону 1009.7 876.7
15 7.12 З 5 10 км 4/3 1200 м
[Sc diur, vesp Ac trans]
+10.3 +0.1 49 +8 +8 по сезону 1011.3 877.5 +12.8
18 7.12 СЗ 5 15 км 6/1 1200 м
[Sc Ac As]
+11.0 -0.5 45 +9 +9 тепло 1011.7 878.4
21 7.12 З 3 15 км 1/0
[Ac trans]
+7.2 +2.1 70 +5 +5 по сезону 1011.8 878.4
00 8.12 З 4 15 км 3/0
[Ac trans]
+7.8 +1.6 65 +5 +5 по сезону 1012.2 878.8
03 8.12 З 5 15 км 1/0
[Ac trans]
+6.6 +1.5 70 +3 +3 по сезону 1013.2 879.1 +6.2
06 8.12 ЮВ 2 8000 м мгла 3/0
[Ac trans]
+9.7 +0.6 53 +9 +11 тепло 1014.2 880.8
09 8.12 З 12 15 км 6/3 1200 м
[Cu hum Ac trans Ci sp]
+12.4 -0.8 40 +9 +9 по сезону 1013.6 880.0
12 8.12 З 7 15 км 8/4 1050 м
[Cb calv Ac As]
+12.2 -1.7 38 +10 +10 по сезону 1014.0 880.4
15 8.12 З 8 15 км 8/3 1050 м
[Sc diur, vesp Ac trans]
+10.3 +0.6 51 +7 +7 по сезону 1016.2 881.7 +13.4
18 8.12 З 5 10 км 4/0
[Ac trans]
+8.8 +2.4 64 +6 +6 по сезону 1016.7 882.5
21 8.12 З 3 10 км ясно +8.4 +0.4 57 +6 +6 по сезону 1016.4 882.5
00 9.12 З 2 10 км ясно +8.0 +0.7 60 +6 +6 по сезону 1016.3 882.5
03 9.12 СЗ 2 10 км 3/0
[Ci fib]
+6.1 +0.6 68 +4 +4 по сезону 1017.5 882.7 +5.8
06 9.12 ЮЗ 3 8000 м мгла 6/1 1200 м
[Cu hum Cs]
+8.8 +1.2 59 +7 +8 по сезону 1018.8 884.1
09 9.12 З 7 10 км 6/3 1200 м
[Cu hum Cs]
+13.4 -0.3 39 +11 +12 тепло 1016.3 882.8
12 9.12 СЗ 7 12 км 6/4 900 м
[Cb calv Ac As Ci fib]
+11.2 +0.6 48 +8 +8 по сезону 1016.8 882.7
15 9.12 З 7 15 км 5/1 1050 м
[Sc Ac As]
+9.4 +1.3 57 +6 +6 по сезону 1017.9 882.9 +13.8
18 9.12 З 5 12 км 1/1 1200 м
[Sc diur, vesp Ac trans]
+8.4 +0.9 59 +5 +5 по сезону 1018.0 883.3
21 9.12 З 3 12 км 1/1 1200 м
[Sc diur, vesp Ac trans]
+8.3 +1.2 61 +6 +6 по сезону 1017.2 883.3
00 10.12 СЗ 2 12 км 8/1 1200 м
[Sc diur, vesp Ac As]
+7.1 +1.0 65 +5 +5 по сезону 1017.4 883.0
03 10.12 СЗ 3 12 км 5/3 1200 м
[Sc Ac trans]
+6.0 -0.9 61 +3 +3 по сезону 1018.2 883.0 +5.8
06 10.12 ЮЗ 2 7000 м мгла 3/0
[Ac trans]
+9.0 +0.7 56 +8 +10 тепло 1018.7 884.0
09 10.12 ЮЗ 5 7000 м мгла 5/5 1050 м
[Cb calv Ac trans]
+11.8 -0.4 43 +10 +11 тепло 1016.6 882.7
12 10.12 З 5 10 км 6/5 900 м
[Cb calv Ac trans Cs]
+11.4 -3.9 34 +9 +10 по сезону 1016.5 882.2
15 10.12 З 2 10 км 6/1 1200 м
[Sc diur, vesp Cs]
+8.7 -0.6 52 +7 +7 по сезону 1017.4 882.6 +12.4
18 10.12 СЗ 2 10 км 1/0
[Ci fib]
+8.2 -3.0 45 +7 +7 тепло 1017.6 882.9
21 10.12 СЗ 3 10 км 1/0
[Ac trans]
+7.6 -2.7 48 +5 +5 по сезону 1016.9 882.6
00 11.12 СЗ 3 10 км ясно +6.6 -2.8 51 +4 +4 по сезону 1017.1 882.6
03 11.12 З 3 10 км ясно +4.4 -2.0 63 +1 +1 прохладно 1019.1 883.3 +4.0
06 11.12 З 3 8000 м мгла ясно +8.7 -1.4 49 +7 +9 по сезону 1019.6 884.6
09 11.12 Ю 2 10 км ясно +12.0 -3.8 33 +12 +17 тепло 1018.1 888.5
12 11.12 ЮЗ 4 10 км ясно +12.3 -2.3 36 +11 +12 по сезону 1017.6 883.3
15 11.12 штиль 0 10 км ясно +9.9 -2.7 41 +10 +10 тепло 1019.4 883.8 +12.6
18 11.12 З 2 10 км ясно +8.0 -1.0 53 +7 +7 по сезону 1019.1 884.1
21 11.12 штиль 0 10 км ясно +6.6 -0.4 61 +6 +6 по сезону 1018.5 884.1
00 12.12 СЗ 2 10 км ясно +5.9 -0.6 63 +4 +4 по сезону 1018.5 883.9
03 12.12 штиль 0 10 км ясно +4.2 -2.6 61 +4 +4 по сезону 1019.9 884.2 +3.4
06 12.12 штиль 0 8000 м мгла ясно +10.1 -1.6 44 +10 +14 тепло 1020.4 885.5
09 12.12 З 5 10 км ясно +14.8 -7.3 21 +14 +17 тепло 1017.9 884.0
12 12.12 З 9 15 км ясно +15.5 -7.4 20 +14 +14 тепло 1017.3 883.5
15 12.12 СЗ 2 15 км ясно +12.3 -6.2 27 +12 +12 тепло 1019.4 884.2 +16.6
18 12.12 С 3 15 км ясно +11.2 -5.3 31 +10 +10 тепло 1018.3 884.3
21 12.12 штиль 0 12 км ясно +8.2 -4.6 40 +8 +8 тепло 1017.6 884.1
00 13.12 С 3 12 км ясно +8.1 -8.4 30 +6 +6 по сезону 1017.6 884.2
03 13.12 С 2 12 км ясно +7.0 -6.7 37 +6 +6 по сезону 1018.5 884.0 +6.2
06 13.12 штиль 0 10 км 3/1 1050 м
[Sc diur, vesp Ac lent]
+12.3 -8.2 23 +12 +15 тепло 1019.4 885.7
09 13.12 ЮЗ 2 10 км 1/0
[Ci fib]
+15.3 -6.9 21 +15 +21 тепло 1017.8 884.4
12 13.12 ЮЗ 3 10 км ясно +16.0 -9.8 16 +16 +17 тепло 1017.1 883.8
15 13.12 СЗ 2 10 км ясно +12.3 -7.2 25 +12 +12 тепло 1019.2 884.7 +16.4
18 13.12 СЗ 2 15 км ясно +10.2 -10.0 23 +10 +10 тепло 1019.5 885.6
21 13.12 штиль 0 15 км ясно +7.9 -5.2 39 +8 +8 тепло 885.7

 

Местоположение метеостанции Tehran (Иран): широта 35.68 долгота 51.32 высота над уровнем моря 1191 м.

В архиве по умолчанию представлена погода в Tehran за последнюю неделю. Архивные данные за месяц целиком и за предыдущие месяцы, начиная с января 2011 года, Вы можете получить, выбрав интересующий диапазон дат из раскрывающегося списка и нажав кнопку "Ввод!".


*Определитесь, кто Вы:
робот инопланетянин человек

Внимание! Время в таблицах - всемирное. Для получения местного времени необходимо прибавить поправку, которая в Tehran равна 3.5 ч.

Смотрите также архив погоды в соседних городах и на ближайших метеорологических станциях:

Погода в Noshahr (Иран) (109 км)
Погода в Ghazvin (Иран) (135 км)
Погода в Ramsar (Иран) (148 км)
Погода в Eskandar Kola (Иран) (160 км)
Погода в Babolsar (Иран) (166 км)
Погода в Semnan (Иран) (187 км)
Погода в Kashan (Иран) (189 км)
Погода в Arak (Иран) (226 км)
Погода в Rasht (Иран) (227 км)
Погода в Anzali (Иран) (259 км)

Пояснения к столбцам:

Ветер - указаны скорость ветра в м/с - средняя за 10 мин, порывы в срок и между сроками (в фигурных скобках) и направление, откуда дует ветер: С - северный, СВ - северо-восточный, В - восточный, ЮВ - юго-восточный, Ю - южный, ЮЗ - юго-западный, З - западный, СЗ - северо-западный.
Видимость - горизонтальная дальность видимости в метрах или километрах. При видимости от 1 до 10 км при отсутствии осадков обычно наблюдается дымка, при ухудшении видимости до 1 км и менее - туман. В сухую погоду видимость может ухудшаться дымом, пылью или мглою.
Явления - указаны атмосферные явления, наблюдавшиеся в срок или в последний час перед сроком; фигурными скобками обозначены явления, наблюдавшиеся между сроками (за 1-3 часа до срока); квадратными скобками обозначены град или гололедные отложения с указанием их диаметра в мм.
Облачность - указаны через наклонную черту общая и нижняя облачность в баллах и высота нижней границы облаков в метрах; квадратными скобками обозначены формы облаков: Ci - перистые, Cs - перисто-слоистые, Cc - перисто-кучевые, Ac - высококучевые, As - высокослоистые, Sc - слоисто-кучевые, Ns - слоисто-дождевые, Cu - кучевые, Cb - кучево-дождевые. Подробнее классификацию облаков см. в Атласе облаков (PDF).
T - Температура воздуха - температура, измеренная на высоте 2 м над землей.
Td - Температура точки росы - температура, при понижении до которой содержащийся в воздухе водяной пар достигнет насыщения.
f - Относительная влажность воздуха - влажноcть воздуха, измеренная на высоте 2 м над землей.
Te - Эффективная температура - температура, которую ощущает одетый по сезону человек в тени. Характеристика душности погоды. При расчете учитывается влияние влажности воздуха и скорости ветра на теплоощущения человека.
Tes - Эффективная температура на солнце - температура, которую ощущает человек, с поправкой на солнечный нагрев. Характеристика знойности погоды. Зависит от высоты солнца над горизонтом, облачности и скорости ветра. Ночью, в пасмурную погоду, а также при ветре 12 м/с и более поправка равна нулю.
P - Атмосферное давление - приведенное к уровню моря атмосферное давление.
Po - Атмосферное давление - измеренное на уровне метеостанции атмосферное давление.
Tmin - Минимальная температура - минимум температуры воздуха на высоте 2 м над землей.
Tmax - Максимальная температура - максимум температуры воздуха на высоте 2 м над землей.
R - Количество осадков - Количество выпавших осадков за период времени, мм. При наведении курсора мыши на число - период времени, за который выпало указанное количество осадков.
R24 - Количество осадков - Количество выпавших осадков за 24 часа, мм.
S - Снежный покров - Высота снежного покрова, см. При наведении курсора мыши на число - состояние снежного покрова и степень покрытия местности в баллах.